This is the latest recevied weather packets stored in our database for station/object K5KHP. If no packets are shown the sender has not sent any weather packets the latest 10 day(s).
| Time | Temp. | Humidity | Pressure | Rain* | Wind** | Luminosity | Snow |
|---|---|---|---|---|---|---|---|
| 1778194082 | 21.67° C | 65% | 1013.5 hPa | 0 mm | - | 404 W/m² | - |
| 1778193779 | 21.67° C | 65% | 1013.5 hPa | 0 mm | - | 415 W/m² | - |
| 1778193476 | 22.22° C | 65% | 1013.7 hPa | 0 mm | - | 454 W/m² | - |
| 1778193172 | 22.78° C | 64% | 1013.8 hPa | 0 mm | - | 486 W/m² | - |
| 1778192869 | 22.22° C | 64% | 1013.6 hPa | 0 mm | - | 502 W/m² | - |
| 1778192565 | 22.22° C | 64% | 1013.6 hPa | 0 mm | - | 497 W/m² | - |
| 1778192263 | 22.22° C | 65% | 1013.7 hPa | 0 mm | - | 504 W/m² | - |
| 1778191959 | 21.67° C | 65% | 1013.8 hPa | 0 mm | - | 526 W/m² | - |
| 1778191655 | 21.67° C | 66% | 1014 hPa | 0 mm | - | 539 W/m² | - |
| 1778191354 | 22.22° C | 64% | 1013.9 hPa | 0 mm | - | 534 W/m² | - |
| 1778191049 | 21.67° C | 65% | 1014.2 hPa | 0 mm | - | 557 W/m² | - |
| 1778190747 | 21.67° C | 66% | 1014.3 hPa | 0 mm | - | 576 W/m² | - |
| 1778190444 | 21.67° C | 66% | 1014.1 hPa | 0 mm | - | 592 W/m² | - |
| 1778190141 | 22.22° C | 65% | 1014.4 hPa | 0 mm | - | 598 W/m² | - |
| 1778189836 | 22.22° C | 64% | 1014.2 hPa | 0 mm | - | 618 W/m² | - |
| 1778189534 | 21.67° C | 65% | 1014.5 hPa | 0 mm | - | 623 W/m² | - |
| 1778189229 | 22.22° C | 66% | 1014.6 hPa | 0 mm | - | 630 W/m² | - |
| 1778188927 | 21.67° C | 65% | 1014.5 hPa | 0 mm | - | 636 W/m² | - |
| 1778188624 | 21.67° C | 65% | 1014.6 hPa | 0 mm | - | 617 W/m² | - |
| 1778188318 | 21.67° C | 66% | 1014.6 hPa | 0 mm | - | 595 W/m² | - |
| 1778188017 | 21.67° C | 66% | 1014.6 hPa | 0 mm | - | 600 W/m² | - |
| 1778187713 | 21.67° C | 66% | 1014.5 hPa | 0 mm | - | 619 W/m² | - |
| 1778187409 | 21.67° C | 66% | 1014.5 hPa | 0 mm | - | 626 W/m² | - |
| 1778187106 | 21.67° C | 65% | 1014.8 hPa | 0 mm | - | 617 W/m² | - |
| 1778186803 | 21.67° C | 66% | 1014.6 hPa | 0 mm | - | 619 W/m² | - |
* Rain latest hour (hover to see other rain measurements)
** Current wind speed in m/s (hover to see current wind gust speed)